Theta_e
327 327 329 329 327 326 325 325 327 328 327 327 327 326 326 329 330 328 327 327 327 326 326 327 326 325 323 321 320 320 321 322 322 322 320 320 322 322 322 322 321 321 322 324 325 326 326 325 326 326 326 327 326 326 326 326 327 326 326 326 325 324 323 322 321 320 319 320 319 318 317 315 315 317 318 317 315 312 310 308 307 308 307 308 307
325 327 330 330 327 326 326 325 327 328 327 327 327 325 325 328 329 329 328 328 327 327 327 325 323 320 318 319 320 320 321 323 323 322 320 320 320 320 320 321 321 321 322 323 324 326 326 326 326 326 326 327 326 326 326 326 326 326 325 325 324 323 323 322 322 321 319 319 320 319 317 315 313 315 316 314 311 309 308 307 306 306 307 307 307
328 328 330 330 328 327 326 325 327 328 327 326 327 325 326 328 330 329 329 328 328 327 325 322 319 316 317 321 323 323 323 324 324 321 320 320 320 320 321 321 322 323 323 321 322 325 327 326 326 326 326 326 326 326 326 325 324 324 324 324 324 323 323 322 322 321 319 318 319 320 318 315 313 313 312 310 308 307 306 305 304 304 305 307 306
331 329 330 330 328 326 325 325 328 329 327 327 327 327 328 329 329 329 329 329 327 324 321 318 314 313 316 321 323 323 324 324 322 321 320 320 320 320 320 321 322 323 323 321 320 324 327 327 326 326 326 326 326 325 324 323 323 322 322 323 323 323 322 322 322 321 319 318 318 319 319 316 313 311 309 309 308 307 305 304 304 304 305 306 306
331 331 331 330 328 326 325 326 328 328 327 328 328 329 329 329 328 329 328 327 324 320 317 314 310 310 313 318 322 323 323 322 321 321 321 320 319 319 319 320 321 322 322 321 321 323 326 326 326 326 325 325 323 323 322 321 321 320 320 321 321 322 322 322 321 321 319 318 317 318 318 317 313 311 309 309 310 309 307 306 306 306 306 307 307
331 331 331 331 329 327 327 328 329 328 327 328 329 329 329 329 329 328 325 324 322 319 316 315 313 311 313 318 322 322 321 321 321 321 321 320 319 319 319 320 321 322 322 321 322 324 326 326 327 325 324 323 322 321 321 320 320 319 319 320 320 321 321 320 320 320 319 318 317 316 316 315 313 312 310 309 310 310 310 310 309 309 308 308 307
331 331 330 330 330 328 328 329 329 328 328 328 329 328 327 327 325 323 322 323 322 320 318 318 317 315 314 318 321 321 321 322 322 321 320 319 320 320 320 321 321 322 322 321 323 325 326 326 326 324 323 322 322 321 321 320 320 319 319 319 319 319 319 318 319 319 318 317 317 316 315 313 313 312 311 310 310 310 311 311 311 311 311 310 309
329 330 329 329 328 328 328 328 327 328 328 327 327 327 324 322 321 320 323 325 323 320 320 319 317 317 317 319 319 319 321 322 321 319 319 319 320 320 321 321 322 322 322 322 323 324 326 326 324 323 323 322 321 321 321 321 320 320 320 319 319 319 318 318 318 318 318 318 317 315 314 313 312 312 312 311 310 311 311 312 312 312 312 312 312
327 328 328 327 328 328 328 327 326 327 327 327 326 326 324 321 321 322 325 326 323 321 321 319 317 318 319 320 320 320 321 321 319 318 318 319 320 320 320 321 322 322 322 322 322 322 323 324 323 322 322 322 321 322 322 321 320 320 320 319 319 319 319 318 318 318 318 317 317 315 314 313 313 312 312 311 312 312 312 312 313 312 312 312 313
326 327 327 327 327 328 328 327 326 326 327 327 326 326 324 322 322 324 325 325 323 321 320 319 318 318 319 320 320 320 320 318 317 318 319 320 320 320 320 320 320 321 321 322 322 322 322 322 322 322 322 321 321 321 321 321 321 320 320 319 319 319 319 319 319 319 318 317 316 315 314 313 312 312 312 312 312 311 311 312 313 313 312 312 312
325 327 327 327 327 327 327 327 326 326 327 326 324 324 323 322 323 325 325 324 322 321 320 319 318 318 319 319 320 320 319 318 318 319 320 320 320 320 320 321 320 320 320 321 321 321 321 321 321 321 320 320 321 321 321 321 321 321 320 320 319 319 319 319 319 319 319 319 318 317 316 314 313 312 312 311 311 310 310 311 312 312 312 312 313
325 326 326 326 327 327 327 327 326 326 326 324 322 323 324 323 324 325 324 322 322 321 321 320 319 318 318 319 319 319 318 318 319 320 320 320 320 319 320 321 322 321 321 321 321 321 321 321 321 321 320 320 320 320 320 320 320 320 320 319 319 319 318 319 319 319 319 319 319 319 318 318 317 316 315 314 312 312 312 313 314 314 314 313 313
325 325 325 325 327 327 326 326 326 326 326 324 322 323 323 323 324 324 323 322 322 322 321 321 319 318 318 318 319 319 319 319 320 320 320 320 320 320 321 321 322 322 322 322 322 321 321 321 321 321 320 320 320 319 318 318 318 318 318 318 318 317 317 317 317 317 317 317 317 318 318 318 317 317 317 317 316 315 315 316 316 317 316 316 315
325 325 324 324 326 326 326 326 325 325 326 325 323 323 323 323 323 323 323 323 323 322 321 320 319 318 318 318 319 319 319 320 320 320 320 320 320 321 321 321 321 322 321 321 321 321 321 320 319 319 319 319 319 318 317 317 317 317 317 317 317 317 317 316 316 317 317 317 317 317 317 317 317 317 318 318 318 317 317 317 317 317 318 317 317
324 324 324 323 324 325 326 326 325 325 325 324 323 323 323 322 322 321 321 322 322 321 321 320 319 319 318 318 319 319 320 321 321 321 320 320 321 321 321 320 320 319 318 316 317 317 316 316 314 314 314 315 316 315 314 314 315 316 317 317 317 317 316 316 316 316 317 317 317 317 318 318 318 318 318 319 319 319 318 318 317 318 318 317 317
321 322 323 322 322 323 324 324 324 324 324 324 323 323 322 321 320 320 321 321 321 321 321 321 321 321 320 320 320 320 320 320 320 321 320 321 321 320 319 317 316 315 314 313 313 313 313 312 311 310 311 313 313 313 313 315 315 316 317 317 317 317 316 316 316 317 317 318 317 317 317 318 318 318 318 318 319 319 319 319 318 318 318 318 318
319 320 321 321 321 321 322 322 322 322 322 322 323 322 321 320 319 320 321 321 321 321 321 321 321 320 319 319 318 319 320 320 319 319 320 320 319 316 314 313 311 311 312 312 312 313 313 312 311 311 312 312 313 314 315 316 316 317 317 317 317 317 317 316 317 317 318 318 318 318 318 317 317 317 317 318 318 318 319 319 319 318 318 318 318
319 319 320 320 320 320 320 321 321 321 320 320 320 320 320 320 319 320 320 321 321 321 321 321 320 317 315 314 314 315 318 318 318 318 318 318 317 315 313 311 310 312 313 312 312 313 313 313 313 313 313 313 313 315 317 317 317 317 318 318 318 318 318 317 317 317 317 318 317 317 317 316 316 316 317 317 317 318 318 318 317 317 317 316 317
318 318 319 319 319 319 319 320 320 320 320 319 320 320 320 319 319 318 318 318 318 319 318 318 317 315 312 311 311 312 313 313 313 314 315 314 313 313 312 311 310 312 313 313 313 314 314 314 315 315 315 315 316 317 317 317 317 317 317 317 318 318 317 317 317 317 317 317 316 316 316 316 316 317 317 317 317 317 316 316 316 316 315 315 315
317 317 318 319 319 319 319 319 319 319 320 320 320 320 320 319 319 317 317 317 316 316 316 316 316 314 312 312 313 312 311 310 311 312 313 313 313 313 313 312 313 314 314 314 315 316 316 316 316 316 317 317 317 317 317 317 317 317 316 316 316 316 316 316 316 315 315 315 315 315 315 316 316 317 317 317 316 316 315 314 314 314 314 314 314
315 316 317 318 319 319 319 319 319 319 319 318 318 318 319 319 318 317 317 316 315 315 316 315 315 315 315 316 316 314 313 313 314 315 315 316 316 316 316 316 316 316 316 316 317 317 317 316 316 316 316 315 315 316 316 315 315 315 315 314 314 314 314 314 314 313 313 313 313 314 315 316 316 316 316 316 316 315 315 314 313 313 312 312 312
313 315 316 317 317 318 318 318 318 318 318 318 317 317 318 319 318 318 317 315 314 315 315 315 315 315 316 317 317 317 317 317 317 317 317 317 317 317 317 317 317 317 317 317 316 316 316 316 315 315 315 314 315 314 314 314 313 313 313 312 312 312 311 311 311 310 311 311 311 312 313 314 314 315 315 315 315 314 314 314 313 313 312 311 311
309 310 313 315 316 316 317 317 317 317 318 318 318 317 318 318 318 318 318 316 315 315 315 315 315 315 315 316 316 316 316 315 316 316 316 316 316 316 316 316 316 316 315 314 314 315 315 315 315 314 313 313 314 313 313 313 312 312 311 310 310 309 308 307 306 305 305 306 308 309 311 312 312 312 313 314 313 313 313 313 313 312 312 311 311
306 306 308 310 312 314 314 314 315 314 315 315 316 316 317 317 317 317 317 317 316 316 315 315 316 316 315 314 314 313 313 312 313 314 314 314 314 313 313 313 313 313 312 312 312 313 313 313 313 312 312 311 311 310 308 307 307 307 306 305 304 303 302 302 301 300 300 301 303 305 307 309 310 311 311 312 312 312 312 311 311 311 310 310 309
305 305 305 306 307 309 311 311 312 312 312 313 313 314 314 314 313 313 313 313 313 313 312 312 313 313 313 311 311 310 309 309 310 310 310 309 309 308 309 308 308 309 309 309 308 308 307 307 307 306 305 304 303 302 301 301 301 301 300 300 300 299 299 299 299 299 298 298 299 300 301 303 304 306 308 309 309 310 310 310 309 309 309 308 308
301 302 302 303 303 304 306 308 308 309 310 310 311 311 312 312 312 311 311 311 311 310 309 309 309 309 309 308 307 306 306 306 305 305 303 302 302 302 301 301 301 301 302 301 301 301 300 300 299 299 299 299 299 299 299 299 299 299 299 299 299 299 299 299 299 299 299 299 299 298 298 298 299 302 305 307 307 307 308 308 307 307 307 307 306
299 298 298 298 299 301 303 303 304 306 307 308 308 308 308 310 310 310 309 309 309 308 308 307 307 307 306 306 305 304 304 303 303 301 299 297 297 297 297 297 297 297 297 297 297 297 297 297 297 297 298 298 299 299 299 299 300 300 300 300 300 300 301 300 300 300 300 301 300 298 298 298 299 301 304 305 305 305 305 306 306 305 305 305 305
299 298 298 297 297 297 299 299 300 301 302 304 306 306 306 306 307 307 306 306 306 306 306 306 306 306 306 305 304 303 303 302 301 300 298 296 296 296 296 296 296 296 296 296 296 296 296 296 297 298 298 299 300 300 300 301 301 301 301 301 301 302 302 302 301 301 301 301 300 299 299 300 300 301 302 302 303 304 304 304 304 304 304 304 303
300 300 300 299 298 297 296 296 297 297 297 299 302 304 304 303 303 304 303 303 302 303 303 304 304 304 303 303 301 300 299 299 298 297 296 295 295 295 295 295 296 296 296 296 296 296 296 296 297 299 299 300 301 301 302 302 302 302 302 302 302 302 302 302 302 301 301 301 300 299 300 301 300 300 300 301 302 303 303 303 303 302 302 302 301
300 300 300 300 300 299 298 297 296 296 295 296 297 298 298 297 297 298 298 297 297 297 298 298 299 299 298 297 297 296 296 296 296 295 295 295 295 295 295 296 296 296 296 296 296 297 298 298 299 300 301 301 301 302 302 302 302 302 302 302 302 302 302 301 301 301 300 299 299 300 301 300 300 300 300 300 301 301 302 302 302 301 300 300 299
299 299 299 299 300 299 299 299 298 297 296 296 295 295 295 295 295 295 295 295 295 295 295 295 295 295 295 295 295 295 295 295 295 295 295 295 295 295 296 296 296 297 297 298 298 299 300 300 300 301 301 301 302 302 302 302 302 302 302 302 302 301 301 301 300 299 299 299 299 299 300 299 299 299 299 300 300 301 301 300 300 299 299 299 298
299 299 299 299 299 299 299 299 299 299 298 297 297 296 296 296 296 296 296 296 296 296 296 295 295 295 295 295 295 295 295 295 295 295 295 295 296 296 297 297 298 299 299 299 300 300 300 301 301 301 301 301 301 301 301 301 301 300 300 300 300 300 300 300 299 298 298 299 298 298 298 298 298 298 298 299 299 299 299 299 298 298 298 298 299
299 299 299 299 299 299 299 299 299 299 298 298 297 297 297 296 296 296 296 296 296 296 296 296 296 295 295 295 295 295 295 295 295 295 296 297 298 298 298 298 299 299 299 299 300 300 300 300 300 300 300 300 300 300 299 299 298 298 297 297 298 298 298 298 298 298 298 298 297 297 297 297 297 297 298 298 298 298 298 298 298 298 298 298 298
299 299 299 299 298 298 298 298 298 298 298 297 297 297 297 296 296 296 296 296 297 296 296 296 295 295 295 295 295 295 295 296 297 297 298 298 299 299 299 299 298 298 298 298 298 298 298 298 298 298 297 297 297 297 297 297 297 297 297 297 297 297 297 297 297 297 297 297 297 297 297 296 296 297 297 297 298 298 298 298 298 298 298 297 297
299 298 298 298 299 298 297 297 297 297 297 297 298 297 297 296 295 296 296 297 296 296 296 296 295 295 295 295 296 296 296 296 297 298 298 299 299 299 299 299 299 298 297 297 297 297 297 297 297 297 297 296 297 297 297 297 297 297 297 297 297 297 297 297 297 297 297 297 296 297 297 297 297 297 297 297 297 297 297 298 297 297 296 296 295
299 298 297 296 297 298 297 297 297 297 297 297 297 297 296 295 295 296 296 296 296 296 296 295 295 295 295 296 296 296 296 296 297 298 298 298 299 299 299 299 298 297 297 297 297 297 297 297 297 296 296 296 296 296 297 297 297 297 297 297 296 296 296 296 296 296 296 296 296 297 297 297 296 296 296 296 297 297 297 296 296 295 294 294 293
298 298 297 295 295 295 296 297 297 297 297 297 297 296 295 295 295 295 296 296 296 295 295 295 295 295 296 296 296 296 296 296 296 297 298 298 298 298 298 298 297 297 297 297 296 296 296 296 295 295 295 295 296 296 296 296 296 296 296 296 295 295 296 296 296 296 296 296 296 296 296 296 296 296 296 296 296 296 295 295 294 293 293 293 293
297 297 297 296 294 294 295 296 296 297 296 296 296 296 295 295 295 295 295 295 295 295 295 295 295 296 296 296 296 295 295 295 295 296 296 297 297 297 297 297 297 296 296 295 295 295 294 294 293 293 293 294 294 295 295 295 295 295 295 295 295 295 295 295 295 295 295 295 295 295 295 295 295 295 295 295 295 294 294 294 293 293 293 293 293
296 296 297 296 295 295 296 296 296 296 296 295 295 295 295 295 295 295 295 295 295 295 295 296 296 296 296 296 295 295 295 295 295 296 296 296 297 297 297 296 296 295 295 294 294 293 293 293 293 293 292 293 293 293 294 295 295 294 294 294 294 294 295 295 295 295 295 295 294 294 294 294 294 294 294 294 294 293 293 293 293 292 292 292 293
296 296 297 297 296 296 296 296 295 295 295 295 295 295 295 295 295 294 294 294 295 295 296 296 296 296 296 296 295 295 295 296 296 296 296 296 296 296 296 295 295 295 294 294 293 293 293 293 293 293 293 292 292 292 293 295 295 294 294 294 294 294 294 294 294 294 294 294 294 293 293 293 293 293 293 293 293 293 293 293 292 292 292 292 292
296 296 296 296 296 296 296 296 295 295 295 295 295 294 294 294 294 294 294 294 294 295 295 295 296 295 295 295 295 295 295 295 295 295 295 295 295 295 295 295 294 294 294 293 293 292 293 293 293 293 293 292 292 292 293 294 295 295 294 294 295 295 294 294 294 294 294 294 294 293 293 293 293 293 293 293 292 292 292 292 292 291 291 291 291
296 297 297 296 297 296 296 296 296 295 295 295 295 294 294 294 294 294 294 293 294 295 295 295 295 295 295 295 295 295 295 295 295 295 295 294 294 294 294 294 294 294 294 293 293 293 293 293 293 293 293 292 292 292 292 293 294 294 294 295 295 295 294 294 294 294 294 294 294 293 293 293 293 293 293 293 292 292 292 291 291 291 291 291 291
297 297 297 297 297 297 296 296 296 294 294 294 294 294 294 294 294 294 294 293 293 294 294 294 294 295 294 294 295 295 295 295 295 294 294 294 294 294 293 293 294 293 293 293 293 293 293 293 293 293 293 293 292 292 292 292 293 293 294 294 295 295 294 293 294 294 294 294 293 293 293 293 293 293 292 292 292 292 292 291 290 291 291 291 291
297 297 297 297 297 297 296 296 295 294 294 294 294 294 294 294 294 294 294 293 293 294 294 294 294 294 294 294 294 294 295 294 294 294 294 294 294 294 293 293 293 293 293 293 293 293 293 293 293 293 292 292 292 292 292 292 292 292 293 294 294 294 294 293 293 294 294 293 293 293 293 293 293 292 292 292 292 292 291 290 290 291 290 290 290
296 297 297 297 297 297 297 296 295 294 294 294 295 294 294 294 294 294 294 293 293 294 294 294 294 294 294 294 293 294 294 294 294 294 294 294 294 294 293 293 293 293 293 293 293 293 293 293 293 292 292 292 292 292 291 291 291 291 292 292 293 293 293 293 293 294 294 293 293 293 293 293 292 291 291 291 291 291 290 290 290 290 290 290 290
296 297 297 297 297 297 297 296 295 295 295 295 295 295 295 295 294 294 294 294 294 294 294 294 294 294 294 294 293 293 293 293 293 294 294 294 294 294 293 293 293 293 292 292 292 292 292 292 292 292 291 291 291 290 290 290 290 290 290 291 291 292 292 292 293 293 293 293 292 292 292 292 292 291 291 290 290 290 290 290 290 290 290 290 290
296 296 297 297 297 297 296 296 296 296 296 296 295 295 295 294 294 294 294 294 294 294 294 294 294 294 294 293 293 293 293 293 293 293 293 293 293 293 293 293 292 292 292 291 291 291 291 291 291 291 291 290 290 289 288 288 288 288 288 288 289 290 290 291 291 291 291 291 291 291 291 290 290 290 290 290 290 290 290 290 291 291 290 290 290
296 296 296 296 296 296 296 296 297 297 297 297 296 296 295 295 294 294 294 294 294 294 294 293 293 294 294 294 293 293 293 293 293 293 293 292 292 291 291 291 291 291 291 291 291 291 291 291 291 290 290 289 288 287 287 287 287 287 287 287 287 287 288 289 289 290 290 290 290 290 290 289 289 289 289 290 290 290 290 290 290 290 290 290 290
295 295 296 295 295 296 297 297 297 297 297 297 297 296 296 296 294 294 294 294 294 294 294 294 293 293 293 293 293 293 293 293 292 292 292 292 292 291 291 291 290 290 290 290 290 290 290 290 290 289 288 287 287 287 287 287 287 287 287 287 287 286 286 287 287 288 288 289 289 289 289 288 288 288 288 288 288 289 289 289 289 289 289 289 289
295 295 296 296 296 296 297 297 297 297 297 297 296 296 296 296 295 294 294 295 295 294 294 294 294 293 293 293 293 293 293 293 293 293 293 293 292 292 292 291 291 290 290 290 290 290 290 289 289 288 287 287 287 287 287 287 287 287 287 287 287 287 286 286 286 286 286 287 287 288 288 288 288 288 288 288 288 288 288 288 288 289 289 288 288
296 295 295 296 297 297 297 297 297 296 296 296 296 296 296 296 296 295 295 296 296 295 295 294 294 294 294 293 293 293 293 293 293 293 293 293 292 292 292 292 291 290 290 290 290 289 289 288 287 287 287 287 287 287 286 286 286 287 287 287 287 287 287 287 286 286 286 286 286 286 286 286 287 287 287 288 288 288 288 288 288 288 288 287 288
Wind_Speed
11 14 19 20 18 20 21 22 20 20 21 22 24 25 23 23 25 23 23 21 19 18 17 16 16 16 17 17 18 19 18 16 15 13 13 13 13 13 13 12 11 10 10 9 10 11 11 11 12 12 12 14 14 13 13 13 14 13 13 13 13 12 11 10 8 6 7 9 8 7 8 9 9 11 12 12 12 12 12 13 13 12 12 13 13
15 17 21 21 20 21 23 23 21 21 23 24 26 26 24 23 24 22 21 20 18 17 16 16 15 15 17 19 18 18 17 16 14 13 13 14 14 13 12 11 10 10 10 9 9 11 11 11 12 12 13 15 14 13 12 12 12 12 13 14 13 13 13 12 11 10 8 9 11 11 11 10 10 10 12 12 11 11 12 13 13 13 13 13 14
17 19 21 21 20 21 23 22 21 23 26 27 27 25 23 23 22 21 20 20 19 17 16 15 14 15 20 22 20 18 17 16 14 13 13 15 15 14 13 11 11 10 10 8 8 11 12 11 12 13 13 14 13 13 12 11 10 11 13 15 15 16 16 15 15 14 12 10 11 12 14 12 9 9 10 11 10 11 12 12 12 13 13 14 15
19 21 23 21 20 22 24 23 23 26 28 28 26 24 23 23 22 21 20 20 19 16 15 14 14 18 22 22 21 20 18 17 15 14 14 15 14 13 12 12 11 10 8 5 6 10 12 11 12 13 13 12 12 12 11 10 11 13 14 16 17 18 18 17 16 15 15 13 10 11 14 12 8 7 9 10 9 9 10 11 12 12 13 15 16
20 23 24 23 22 24 25 25 27 28 29 28 27 26 24 23 22 21 21 20 18 16 15 15 16 19 21 22 22 21 18 17 16 15 15 13 12 11 12 12 12 10 7 4 6 9 11 11 11 13 13 12 10 9 8 8 10 13 14 15 16 17 17 17 18 18 17 13 11 11 14 14 10 9 11 11 9 9 9 10 11 13 14 16 17
20 25 26 25 25 26 28 29 29 29 29 29 27 27 26 23 22 21 21 20 18 17 17 17 16 16 18 22 23 20 18 17 16 15 14 13 13 12 12 12 12 10 7 6 7 9 10 11 11 14 13 10 8 7 5 5 7 9 11 13 14 16 17 17 18 20 18 12 10 11 14 15 13 11 10 11 11 10 10 11 12 13 15 17 19
19 23 24 23 24 26 29 30 29 29 30 29 27 25 24 21 21 21 21 21 19 19 19 17 15 14 15 21 22 19 19 17 13 13 14 14 14 11 11 13 14 12 10 9 10 11 11 12 14 15 12 8 7 7 6 6 6 6 7 8 9 10 13 14 15 18 16 11 10 12 12 13 14 13 11 11 13 14 14 15 15 15 16 17 19
17 19 18 17 19 24 27 28 29 29 28 26 24 22 20 19 20 23 23 21 19 19 19 17 15 15 16 19 19 19 19 15 12 15 17 16 14 11 11 15 16 15 13 12 12 12 13 15 16 15 12 10 9 7 7 7 7 6 6 5 6 7 9 11 13 14 13 12 13 13 13 14 15 16 16 16 18 18 18 18 19 18 18 17 17
16 17 17 16 17 22 25 24 26 26 24 21 21 20 18 17 20 25 25 21 19 20 19 18 17 17 17 17 17 18 17 13 14 18 19 17 15 12 12 15 16 15 15 14 13 12 13 16 16 14 12 12 10 8 7 8 8 7 6 5 6 7 8 9 11 12 13 14 15 15 15 17 18 19 21 21 20 18 18 20 20 20 20 20 19
14 17 19 18 18 22 24 23 22 22 21 21 21 21 19 18 22 25 23 20 20 21 20 19 18 18 18 17 17 17 16 15 18 20 18 16 15 15 15 15 15 14 14 15 14 12 12 13 13 12 11 11 10 9 8 8 9 10 9 8 7 7 7 8 9 10 11 13 15 17 19 21 22 23 24 24 23 22 22 22 22 21 22 24 24
13 15 16 17 20 22 23 24 22 21 22 21 21 22 20 20 24 24 21 21 22 22 21 20 19 19 19 18 17 17 17 18 19 18 17 17 17 16 16 15 14 14 13 14 14 12 11 11 11 10 10 9 10 10 10 10 10 10 11 12 11 10 9 9 9 10 11 11 13 15 19 21 23 25 25 24 24 24 24 24 24 24 25 27 27
7 10 10 14 21 21 21 23 22 22 23 21 21 22 21 22 25 24 22 23 24 23 22 20 19 20 21 19 18 18 18 18 18 17 17 18 17 17 16 14 13 13 12 12 12 10 9 9 9 9 9 8 9 10 10 11 12 12 12 13 13 13 13 12 11 11 12 13 14 14 16 17 18 20 23 23 23 23 22 22 23 25 27 29 31
4 11 12 13 18 21 21 21 22 22 22 22 24 24 22 23 25 24 23 24 24 23 21 19 19 20 21 20 19 19 19 19 19 18 18 17 17 17 16 14 13 13 12 12 11 10 7 6 6 6 6 7 8 9 9 9 11 12 13 14 14 15 16 15 14 12 11 13 15 15 15 17 16 15 16 18 21 24 24 24 25 25 26 29 31
6 8 10 12 15 19 19 17 19 23 23 23 25 25 23 24 26 25 25 26 26 23 19 18 20 21 21 21 20 20 20 20 20 19 18 18 18 17 16 15 13 12 11 9 8 7 5 4 4 4 4 5 6 6 7 8 9 11 11 13 14 15 17 17 17 15 12 12 13 14 15 17 17 15 14 15 19 22 25 27 28 29 30 30 29
6 6 6 8 11 15 16 15 17 22 24 25 26 25 26 28 28 27 26 26 25 23 20 20 21 21 21 21 20 21 21 21 21 20 19 19 18 18 17 14 10 7 6 4 3 3 4 5 5 6 6 6 6 7 8 9 11 11 11 11 12 13 14 16 17 15 13 12 14 15 15 17 18 18 17 17 18 20 22 24 25 27 29 30 29
8 8 6 6 7 9 13 15 17 20 23 24 24 26 28 28 26 27 27 25 25 23 21 21 21 20 20 20 20 21 21 20 19 19 18 18 18 17 14 10 7 5 4 3 3 4 5 7 7 8 8 8 9 10 10 10 11 11 11 11 11 12 13 14 15 14 14 14 15 16 18 19 19 19 19 19 19 19 21 23 24 25 26 27 28
10 8 7 8 7 7 9 13 17 20 21 22 24 25 27 26 23 25 27 26 25 23 22 21 19 18 17 15 14 16 17 17 17 17 17 16 15 14 11 8 8 9 8 8 9 10 11 11 10 9 11 12 12 11 10 11 11 11 12 11 12 13 14 15 15 15 15 17 18 19 20 20 20 19 18 17 18 19 21 22 23 24 26 26 27
12 10 9 9 8 7 8 10 14 18 20 23 25 26 26 27 25 25 26 27 24 21 18 17 15 11 8 7 6 8 12 15 15 16 16 14 13 12 12 12 12 11 9 10 12 14 14 13 12 11 12 13 13 12 11 11 12 11 11 11 11 13 15 16 16 16 17 18 19 19 18 17 16 15 15 14 15 17 20 21 20 21 22 24 26
13 12 12 11 10 9 9 9 11 13 14 17 22 23 23 24 23 21 20 20 18 15 13 13 11 9 8 10 11 11 12 14 13 13 14 13 12 13 14 15 14 12 11 11 13 13 12 11 11 11 12 12 13 12 12 12 12 11 11 11 12 13 14 15 16 16 16 16 15 15 14 13 12 12 13 13 13 15 16 17 17 17 18 20 23
12 11 11 11 10 10 10 10 10 10 10 11 14 17 18 18 17 15 14 13 14 15 15 14 15 14 14 16 16 15 13 12 12 12 12 12 12 13 13 14 13 12 12 12 12 11 10 9 10 10 11 12 12 12 11 11 11 11 10 10 10 11 11 12 12 13 12 12 12 12 12 12 12 13 13 13 12 12 13 13 13 15 16 18 19
11 9 9 10 10 10 11 11 10 10 10 10 11 12 14 15 14 14 15 14 14 14 13 13 15 17 17 15 14 14 13 12 11 10 10 9 9 9 10 10 10 10 11 11 11 10 10 10 9 9 10 10 9 9 8 8 8 8 8 8 8 9 9 10 10 11 12 13 14 14 14 14 13 13 14 14 13 13 13 12 12 13 14 15 15
11 10 10 10 10 9 10 11 10 10 10 11 12 13 12 11 12 13 14 14 14 13 12 11 11 13 14 13 11 11 11 10 9 8 7 7 7 7 7 8 9 10 10 10 10 9 9 8 7 7 6 6 6 6 6 7 7 7 8 8 9 11 12 13 13 14 15 16 16 17 17 16 15 14 14 14 15 15 15 15 15 14 14 14 15
11 11 11 11 11 11 11 11 12 12 12 12 13 13 13 12 12 13 14 14 14 12 11 10 10 10 11 11 10 9 9 8 7 7 6 6 6 6 6 7 7 8 8 8 8 7 7 6 6 5 5 6 7 8 9 10 11 12 12 13 14 15 16 16 17 18 18 18 18 18 18 18 17 17 16 15 15 16 17 17 17 16 16 16 16
9 11 12 12 12 11 11 12 12 13 14 14 15 15 14 14 14 14 14 14 14 13 12 11 10 10 11 10 9 9 7 6 6 5 5 6 5 5 5 6 6 6 6 6 7 7 7 7 8 8 9 10 10 11 11 12 13 13 14 15 15 15 16 16 17 17 18 18 18 18 18 18 17 16 16 16 15 14 15 15 16 17 17 18 17
7 8 10 11 11 11 10 11 11 12 13 14 15 16 16 16 16 16 16 16 16 15 14 13 11 11 10 10 9 8 7 6 4 4 3 3 3 3 4 5 5 6 7 8 8 8 9 9 10 11 11 11 11 10 9 9 10 10 11 12 12 12 13 13 13 14 14 14 14 15 17 18 18 17 17 15 14 13 12 13 14 16 17 17 17
8 8 8 9 9 9 9 10 10 10 10 10 12 13 13 13 14 14 13 13 13 13 13 12 11 10 9 9 8 6 5 4 3 2 2 1 1 2 3 4 5 6 7 7 8 8 8 8 8 8 8 8 8 8 8 8 8 8 8 8 9 9 10 11 11 11 10 11 13 14 14 14 15 15 14 13 12 12 11 11 12 13 15 15 16
12 12 10 9 8 7 7 8 8 8 9 9 10 11 11 10 10 10 10 10 9 9 9 8 7 6 5 5 4 4 3 3 2 1 1 1 1 2 2 4 5 5 4 5 5 5 6 6 7 7 7 7 8 8 8 7 7 7 7 7 8 9 10 11 11 10 11 13 16 16 14 12 11 10 10 9 9 10 10 10 11 12 14 14 15
13 14 13 12 10 9 8 7 7 7 6 6 8 10 10 10 9 10 10 9 8 7 7 6 5 3 1 1 1 1 1 2 2 1 1 1 1 1 3 4 4 3 3 4 4 5 6 6 7 7 7 8 8 8 7 7 6 5 5 6 7 8 9 10 10 11 12 15 16 15 13 11 11 9 8 7 7 7 8 9 10 11 12 12 12
12 12 12 12 12 11 11 10 8 8 6 5 6 8 8 8 7 8 8 8 6 5 4 3 3 2 2 3 3 4 4 3 3 2 2 1 1 2 3 3 3 3 4 5 6 6 7 7 8 8 8 7 7 7 6 5 4 4 4 5 5 6 7 8 9 10 11 12 13 11 10 9 10 10 8 7 7 7 7 7 8 9 9 10 10
10 11 11 11 11 11 11 12 11 10 10 8 7 8 8 7 6 6 6 5 4 3 2 1 1 1 3 4 5 5 5 4 3 2 2 1 1 2 3 3 3 3 4 6 6 6 6 7 7 7 6 5 5 5 5 4 4 4 5 6 6 7 7 7 8 9 9 10 9 7 7 8 8 9 8 7 6 6 7 7 8 8 8 8 7
7 9 9 10 10 10 10 10 10 10 11 11 9 8 9 9 8 7 7 6 4 3 2 2 1 1 3 4 5 6 6 5 4 3 1 1 3 4 4 4 4 4 5 5 6 6 6 5 5 4 4 4 4 4 4 4 5 6 8 9 9 10 10 10 10 9 9 8 7 6 5 7 8 9 8 7 5 6 6 7 7 7 7 7 8
6 8 8 8 8 7 8 9 9 9 10 10 10 9 8 8 8 8 7 6 5 4 4 3 2 1 2 3 4 4 5 5 4 2 1 5 7 7 6 5 4 3 3 3 3 4 4 4 4 3 3 4 4 5 6 7 9 10 12 12 12 12 11 10 10 8 7 8 8 7 6 7 8 9 7 6 5 6 6 6 7 7 8 8 9
6 7 6 6 6 5 5 6 7 8 8 8 8 8 8 7 7 7 6 6 6 6 6 6 5 3 2 1 1 1 1 2 3 3 5 8 9 8 6 4 1 1 2 3 4 4 4 4 5 5 6 7 8 8 9 9 10 10 10 9 9 9 9 8 7 6 6 7 8 7 6 7 8 8 6 5 5 5 5 6 6 7 6 6 6
6 6 5 5 5 5 5 5 5 6 6 7 7 7 7 7 6 6 5 5 6 8 9 9 7 5 3 3 3 3 4 5 6 6 6 6 6 6 4 2 2 3 4 5 5 4 4 4 3 3 3 3 3 4 4 5 5 6 7 7 8 7 6 5 5 4 4 5 6 6 6 7 7 7 6 5 5 4 5 6 6 5 5 4 5
5 5 4 3 2 3 4 4 5 5 5 6 6 6 6 6 5 4 4 4 6 7 9 9 7 5 4 4 5 5 5 5 6 6 6 5 4 3 3 2 3 5 5 3 2 2 3 4 5 5 6 6 5 4 4 3 4 4 5 6 6 5 4 3 3 3 3 4 5 5 5 6 5 5 5 4 4 4 5 5 5 5 5 5 4
4 5 5 3 1 2 3 4 5 5 5 4 5 5 5 4 4 3 3 4 5 6 8 7 5 3 2 3 4 4 2 3 5 5 5 4 3 2 3 4 5 5 4 5 7 8 9 9 10 10 10 9 8 7 5 4 4 5 6 7 7 6 5 4 4 4 4 4 4 5 5 5 5 5 4 4 4 4 4 3 2 2 3 2 2
4 5 7 5 2 2 3 4 4 4 3 3 3 3 4 4 4 3 3 4 5 8 8 6 3 2 2 2 3 4 3 1 3 4 5 5 4 4 5 4 3 3 6 9 11 12 12 12 12 12 12 12 11 10 9 7 6 6 6 7 8 7 7 6 5 5 5 5 5 6 7 7 8 8 7 6 5 4 2 1 0 1 2 4 6
5 6 7 7 4 2 3 3 2 3 3 2 2 2 3 4 4 3 4 5 7 8 7 4 4 4 3 2 3 5 5 3 1 2 5 6 5 4 3 0 4 7 11 13 13 13 13 13 13 13 14 14 13 13 12 11 9 8 7 8 9 8 7 5 5 6 8 9 10 11 11 11 10 9 8 7 6 4 3 1 1 3 4 4 4
4 4 4 4 4 4 4 4 4 4 4 3 2 0 1 2 3 4 5 6 6 5 6 6 6 5 2 3 4 4 4 3 3 3 4 4 4 4 5 7 9 10 12 13 13 13 13 14 15 15 15 15 14 13 13 12 11 9 9 10 10 8 5 5 7 10 11 12 12 12 11 10 9 8 7 6 6 4 3 3 4 4 3 2 1
5 4 3 3 3 4 4 5 5 4 3 3 3 1 1 2 4 5 6 6 4 5 7 7 6 5 2 3 4 5 4 5 8 9 9 10 11 11 11 10 11 11 12 12 12 13 13 14 15 15 15 15 14 12 12 12 10 9 9 10 9 8 8 10 11 12 12 11 11 11 10 8 7 6 5 5 6 5 4 5 5 5 5 6 5
4 3 3 3 2 2 3 4 6 5 3 2 3 3 2 3 5 6 8 7 3 6 6 5 5 4 3 3 5 6 5 7 12 13 13 13 13 13 12 11 11 11 11 11 11 11 11 12 13 13 13 13 13 12 12 12 10 8 9 9 7 7 9 12 12 11 10 10 10 9 7 6 5 5 4 4 5 4 4 3 3 5 7 8 8
2 1 2 4 4 4 3 4 6 5 2 1 0 1 2 4 6 7 10 9 3 6 4 4 5 5 4 3 5 7 5 8 12 13 12 12 12 11 10 10 9 9 9 9 9 9 9 9 10 10 11 11 11 11 11 12 11 10 9 8 6 6 8 11 11 9 7 7 6 5 4 3 3 4 3 2 2 2 2 2 4 5 6 6 7
3 1 1 2 4 6 6 6 7 4 2 3 1 1 1 3 4 6 11 12 3 8 5 4 5 5 5 5 5 5 4 7 10 10 10 10 9 9 8 8 8 7 8 7 7 7 7 7 8 9 9 8 8 9 9 9 10 10 9 7 6 6 7 8 7 6 4 4 3 3 2 3 3 3 2 1 0 2 2 3 4 5 5 6 7
4 4 2 0 2 5 6 6 5 1 4 4 0 1 1 2 4 5 11 13 3 9 8 4 4 4 4 6 6 6 5 6 7 7 7 7 7 7 7 7 6 6 6 6 5 5 6 6 6 7 7 7 7 7 7 7 8 8 8 7 6 5 5 6 6 4 3 3 3 3 3 4 4 2 1 1 1 2 2 2 3 4 5 6 7
6 5 4 2 2 3 4 4 4 2 2 2 1 2 3 4 5 4 8 12 6 6 9 5 4 4 2 4 6 7 6 5 4 4 4 5 5 6 6 6 6 5 5 5 5 5 6 5 6 6 6 6 6 6 6 6 6 5 5 5 4 4 4 4 3 2 1 2 3 3 3 4 4 2 1 0 1 1 1 2 3 4 4 5 6
7 6 5 4 4 2 2 2 3 2 1 1 3 4 5 5 4 3 5 10 9 1 7 5 3 3 2 1 2 5 5 5 4 3 3 3 4 5 5 5 6 5 6 6 6 6 6 5 5 5 5 5 5 6 5 5 5 4 3 3 2 1 1 0 0 1 1 2 2 2 3 3 4 3 3 3 2 2 2 3 3 5 5 5 6
8 6 5 5 4 2 2 3 2 2 2 3 5 6 6 4 2 3 4 8 9 5 1 5 5 4 3 2 2 1 2 3 3 3 3 4 5 5 5 6 6 6 6 6 5 5 4 4 4 4 4 5 6 6 5 5 5 4 4 3 3 2 2 3 3 3 3 3 3 3 3 3 4 5 5 4 4 4 3 3 4 4 5 6 7
7 6 5 4 5 5 5 5 5 5 5 4 4 6 7 5 3 4 5 6 7 7 5 0 5 8 6 4 3 2 2 3 4 4 4 4 5 6 6 6 7 7 6 5 4 4 3 3 3 4 5 5 5 4 4 5 5 5 5 4 4 4 4 4 5 5 5 4 4 4 4 4 5 5 5 6 6 7 6 6 7 7 7 7 7
5 6 6 6 7 7 6 5 6 6 6 5 3 5 7 7 5 5 5 6 8 8 5 3 0 4 7 7 6 5 4 3 3 4 4 4 5 6 7 8 8 7 6 5 5 4 3 3 4 5 4 3 3 3 4 5 5 6 6 6 5 5 4 4 5 5 6 6 6 5 5 5 6 6 6 7 8 8 8 8 8 8 7 7 7
3 4 5 6 6 6 6 7 7 6 6 6 5 4 5 6 6 6 7 8 10 11 9 5 2 1 3 6 8 7 5 4 5 5 4 4 4 6 7 9 9 8 6 5 5 4 4 5 5 4 2 2 2 3 3 4 5 6 6 6 6 5 4 4 4 4 5 6 6 6 7 7 7 7 7 7 8 8 7 7 6 5 5 5 5
5 5 5 5 6 7 7 8 7 6 5 6 6 5 5 6 7 7 8 10 10 11 11 9 6 3 2 3 4 7 7 6 6 6 6 5 5 6 8 9 9 7 6 5 5 5 5 4 3 1 1 1 2 2 3 3 4 5 5 6 5 5 4 4 3 3 3 4 4 5 6 7 7 7 8 8 8 8 8 6 6 6 6 4 3
Wind_Direction
184 200 204 203 207 208 204 199 195 190 189 189 188 187 187 185 181 177 177 180 185 189 193 198 200 202 201 194 189 190 190 186 183 185 180 172 167 165 164 163 162 166 173 179 189 194 193 192 191 191 191 192 191 192 193 194 200 206 210 212 213 220 229 227 230 232 196 180 188 200 200 199 201 207 212 213 214 217 220 222 222 224 225 221 212
192 201 204 206 209 208 203 199 192 186 186 187 187 188 188 186 182 178 180 183 187 194 200 203 202 196 185 177 172 171 171 170 170 174 172 164 157 152 151 155 157 159 161 166 183 193 193 189 184 185 192 196 192 185 183 187 193 201 207 209 213 222 230 233 235 242 230 197 191 203 209 208 214 220 220 218 222 229 232 233 231 227 226 226 220
204 206 207 209 210 205 201 198 193 189 188 187 189 190 185 182 184 186 186 187 193 200 203 201 194 178 169 165 163 163 165 166 166 167 164 159 157 153 151 154 159 162 162 164 179 189 192 189 185 184 185 189 190 187 185 187 196 203 207 212 220 227 233 236 235 241 246 228 207 210 215 214 219 229 224 217 225 240 243 243 242 233 226 226 225
213 213 209 208 207 202 199 198 193 190 188 188 189 186 179 182 189 191 191 194 197 198 195 191 179 171 170 167 163 166 168 167 168 164 159 160 164 165 163 163 166 169 167 166 181 188 189 186 182 177 173 175 184 188 188 193 204 210 215 222 226 227 230 233 234 241 247 240 228 225 224 224 226 224 215 208 214 232 239 242 244 238 232 228 227
215 215 213 210 205 200 198 196 192 189 189 187 185 182 183 189 194 196 199 198 193 184 177 172 167 170 174 170 166 170 170 167 165 162 163 164 163 165 168 167 168 171 166 157 173 184 184 180 174 168 164 166 172 178 185 199 209 213 217 221 221 222 228 231 234 241 245 243 239 232 224 227 232 223 214 215 220 224 229 235 239 240 238 233 231
213 213 215 213 206 200 196 195 193 191 189 185 182 183 187 192 195 199 199 190 178 170 161 154 152 161 170 169 169 170 167 165 165 166 168 164 158 163 171 172 173 170 154 142 155 170 174 171 167 163 163 166 166 164 169 180 191 201 206 208 211 218 225 232 237 239 239 241 244 237 226 225 231 232 227 227 232 238 241 240 239 240 239 237 235
218 221 222 220 213 205 198 195 191 189 188 184 182 185 189 193 196 195 188 177 169 162 155 147 143 147 159 168 170 169 164 165 170 172 170 164 161 165 165 168 172 162 143 137 145 155 162 163 163 164 166 174 173 162 161 168 171 176 183 188 196 206 216 224 230 232 233 237 241 243 241 235 232 237 243 240 239 244 250 251 249 246 244 243 241
226 230 235 235 224 210 203 197 189 185 187 185 181 183 186 189 187 181 176 171 166 160 155 151 148 147 156 163 165 166 166 169 171 168 165 162 162 162 153 155 160 153 141 137 138 146 158 161 163 169 176 185 187 178 175 181 185 177 164 169 190 202 205 208 213 221 231 240 241 241 245 243 238 237 241 241 240 242 246 251 254 255 255 256 254
236 234 237 239 229 215 208 201 190 185 187 183 177 178 181 181 177 173 171 170 166 162 161 160 158 156 158 159 159 164 169 171 166 162 162 162 161 162 159 156 156 153 149 147 143 146 159 166 171 177 184 193 201 206 198 194 199 198 177 167 192 209 209 207 211 218 225 233 237 239 241 243 243 241 240 241 246 251 252 252 255 258 259 260 259
248 239 234 231 226 216 209 202 194 190 188 182 176 178 181 178 172 168 169 170 168 165 166 169 169 166 163 162 163 166 167 164 162 161 164 166 164 164 164 163 163 160 155 155 156 156 163 171 179 186 194 203 212 224 227 220 220 222 219 213 212 214 219 225 229 225 223 227 233 238 240 241 242 243 246 250 252 253 252 254 257 259 257 256 257
260 248 240 230 223 217 206 199 195 189 182 176 172 174 175 173 169 167 168 170 170 169 171 175 178 174 170 167 167 167 164 163 164 165 169 172 171 169 166 162 163 166 163 162 164 167 172 177 183 190 198 208 216 225 236 242 243 243 241 240 239 233 226 228 233 230 226 227 228 232 236 237 237 239 245 251 254 253 254 256 258 259 256 257 259
254 231 221 211 213 214 204 197 194 185 177 170 167 170 171 169 169 170 171 171 171 173 176 180 181 179 176 172 170 170 169 168 170 171 173 176 177 176 175 170 166 169 173 176 176 174 179 188 196 200 203 214 225 231 235 243 249 251 251 252 254 251 244 238 240 243 244 244 242 243 246 248 246 245 246 250 254 256 257 256 257 258 257 256 257
148 174 167 165 187 202 202 197 193 188 180 171 167 172 174 173 174 175 175 176 176 177 181 183 183 181 179 176 173 173 174 174 176 177 180 181 179 176 177 178 177 176 176 181 186 185 191 213 227 230 228 229 238 244 245 247 248 249 253 255 256 258 257 254 251 253 259 262 260 259 262 267 270 266 259 253 250 250 252 254 257 261 261 259 259
98 142 156 149 160 181 192 195 192 187 183 178 175 175 175 177 179 178 177 179 179 178 176 176 177 176 179 180 177 177 176 174 173 176 180 182 180 176 175 173 176 181 181 182 188 189 198 224 243 258 253 242 244 251 257 259 254 251 253 253 252 253 255 256 255 255 258 266 268 266 266 270 274 275 270 258 249 248 250 252 255 259 262 263 266
86 96 138 145 142 158 174 185 188 183 181 182 181 178 176 178 176 171 170 174 174 172 168 166 166 167 170 174 174 175 175 172 173 175 178 181 182 182 182 179 178 186 188 185 193 202 224 249 263 272 271 265 262 263 270 272 265 262 261 255 251 248 246 247 249 250 253 262 269 271 271 273 275 276 274 267 260 257 257 258 260 261 263 264 264
74 74 85 96 102 134 157 166 173 177 181 183 182 177 173 172 168 164 166 169 167 164 161 159 159 159 162 167 171 173 172 173 176 178 180 185 189 191 192 190 192 211 235 257 269 277 281 280 280 283 286 284 278 273 273 270 264 263 265 263 257 250 245 244 245 249 257 266 273 276 278 279 280 280 279 276 272 268 264 263 263 264 265 265 265
68 70 73 78 83 108 133 142 149 158 166 173 178 178 169 162 159 159 159 160 160 159 159 159 160 161 161 162 167 171 174 178 184 187 191 199 203 204 210 215 221 238 258 273 286 296 295 286 279 283 289 289 285 279 272 266 264 262 260 260 258 253 251 251 252 257 264 271 277 279 281 282 282 281 279 278 278 275 272 270 269 269 270 271 271
78 82 85 86 87 96 114 128 138 145 149 151 160 169 165 159 160 158 150 148 150 153 156 160 164 165 163 169 184 191 189 190 195 197 201 205 204 204 213 225 235 249 262 270 278 282 279 273 269 270 271 269 269 269 265 263 264 260 253 250 249 249 251 254 258 263 267 272 276 277 278 279 279 281 281 281 282 282 282 284 284 279 278 280 280
78 82 87 91 90 93 104 121 136 147 151 148 150 159 164 162 160 155 143 141 150 163 175 184 191 199 206 208 208 204 192 186 189 196 201 204 204 207 216 228 239 249 259 264 266 262 258 258 258 256 252 248 249 251 250 252 255 257 256 251 247 249 253 257 261 263 266 269 271 272 274 277 280 286 288 289 291 291 291 296 296 289 287 290 290
73 78 84 90 92 93 99 108 120 135 154 163 160 166 177 178 173 168 167 174 184 190 192 193 194 196 199 199 196 195 196 194 192 195 199 203 208 215 223 231 239 247 254 259 258 253 251 251 249 248 248 246 245 244 245 250 254 259 261 257 253 253 255 259 262 264 267 272 277 281 285 287 288 290 290 292 294 293 294 300 301 295 292 294 296
72 79 86 90 92 95 101 104 107 115 130 150 156 159 169 177 180 184 190 192 186 179 175 175 178 178 180 185 187 190 197 203 202 199 201 207 212 217 223 230 238 248 255 258 257 255 253 250 248 247 245 243 243 243 246 251 252 253 257 259 261 262 263 268 273 277 282 286 291 294 294 293 291 289 289 291 292 291 294 298 299 296 293 293 297
73 77 86 94 96 97 101 104 108 112 120 135 143 141 142 154 163 167 168 166 165 166 168 172 177 177 175 175 179 181 184 189 193 193 193 199 204 211 221 229 237 245 251 252 250 247 243 240 240 240 238 242 248 253 261 266 265 267 271 275 279 281 282 284 287 289 289 288 288 289 289 288 288 286 285 287 290 293 297 300 301 300 299 299 302
74 75 81 89 94 99 105 108 112 117 122 132 142 142 140 144 148 149 153 160 167 172 174 179 189 194 186 178 175 175 173 174 181 186 191 199 204 211 222 229 231 234 234 232 232 234 236 239 243 247 256 267 271 274 280 282 282 283 285 286 288 289 290 291 291 290 288 286 285 284 284 285 286 286 285 286 289 295 299 302 304 305 305 307 309
69 74 79 85 90 95 103 106 110 113 116 124 134 139 141 144 142 141 147 154 159 161 163 169 179 184 181 175 169 165 160 160 171 185 197 204 204 203 207 211 215 218 219 221 228 237 244 250 257 264 270 272 273 275 278 279 281 283 285 287 290 290 291 291 291 290 288 286 285 284 283 284 284 283 283 284 290 298 301 303 305 307 309 311 311
68 74 80 87 91 94 98 101 104 106 108 116 125 129 133 137 135 135 140 144 147 148 147 148 153 158 159 154 146 141 138 139 155 180 194 201 206 206 211 218 224 230 235 239 245 250 254 258 260 262 263 264 264 264 264 265 270 274 277 282 286 290 294 298 299 300 301 302 302 299 295 292 288 287 287 289 295 302 303 303 305 305 306 308 310
70 73 76 84 90 98 105 104 102 103 105 109 116 120 128 134 134 133 135 140 145 144 137 134 137 139 137 130 122 116 112 112 125 147 153 162 194 208 218 229 235 239 242 245 247 248 249 250 248 244 242 242 242 243 246 252 259 265 271 279 288 296 307 314 317 322 331 338 338 332 323 312 301 295 293 294 296 298 300 302 302 299 299 301 302
71 72 73 76 79 89 105 110 112 116 115 114 114 114 120 129 133 131 131 134 139 137 131 128 125 118 112 105 96 88 80 74 71 69 69 87 144 167 198 220 228 228 227 231 233 229 227 227 223 218 220 225 231 239 249 257 265 273 283 294 306 319 328 333 336 343 349 350 349 348 345 339 326 310 299 298 300 299 298 298 296 294 293 294 296
74 73 72 73 73 75 83 93 104 114 119 128 133 127 125 130 134 132 129 129 132 134 134 135 133 129 112 38 27 357 322 309 305 314 315 281 194 192 218 229 232 230 230 236 235 225 221 221 220 219 221 226 235 246 254 257 262 272 289 305 322 335 340 340 343 346 348 348 348 349 352 358 357 345 327 316 314 312 305 299 297 296 297 298 300
79 77 75 74 75 79 85 88 94 101 110 136 159 154 145 143 147 145 141 140 141 142 148 158 167 190 243 271 280 280 277 276 278 283 289 285 261 250 251 253 261 264 254 244 238 232 228 224 223 224 225 228 236 242 243 244 252 264 285 305 321 329 329 330 335 340 344 345 345 344 350 3 7 2 350 331 317 317 325 327 320 313 310 309 307
78 78 76 75 74 76 83 88 94 100 104 113 132 140 135 129 131 138 138 132 130 132 146 182 204 242 270 277 285 290 291 290 286 287 297 308 249 243 253 259 262 251 236 227 224 222 221 219 216 214 214 217 225 227 227 239 258 271 285 299 309 316 320 325 332 339 342 343 342 343 354 4 8 9 4 347 318 309 321 332 330 321 315 311 305
77 81 80 77 74 70 71 77 84 91 95 96 98 105 112 113 110 109 107 101 93 83 72 60 49 286 271 271 278 288 294 296 296 297 302 174 181 209 232 237 229 218 210 210 211 206 203 207 206 200 200 210 219 223 233 252 272 285 295 300 303 307 313 317 322 330 335 335 334 336 345 357 7 13 14 7 347 332 333 334 327 317 310 304 298
77 80 78 74 68 63 64 69 73 78 82 83 84 84 88 95 98 96 94 89 80 70 57 44 29 331 289 276 276 282 287 291 302 316 158 166 176 189 200 202 200 201 206 219 223 211 201 207 216 225 246 261 269 278 286 291 296 298 297 296 295 297 302 308 315 324 327 324 325 330 341 356 5 12 19 18 4 350 346 338 324 316 314 310 308
78 76 67 56 49 51 64 71 73 76 75 72 71 71 67 66 72 75 75 70 63 54 47 42 36 21 350 311 278 271 292 335 17 82 143 163 171 178 186 188 186 255 282 281 275 264 261 267 270 275 282 285 289 295 299 301 305 307 305 305 304 304 308 313 317 320 321 325 332 342 351 352 352 359 19 33 22 7 355 338 324 318 315 316 321
87 79 57 38 37 48 68 78 77 76 75 70 66 63 59 56 53 51 52 53 52 49 45 43 41 37 32 40 63 82 85 72 68 87 125 151 166 183 202 222 349 348 326 309 297 288 288 296 300 304 313 316 313 317 323 327 330 329 326 324 323 321 323 328 331 332 335 339 342 347 350 349 350 3 24 28 12 355 339 325 320 320 320 328 338
66 53 34 16 22 47 67 84 83 78 79 77 68 58 51 47 45 45 44 38 40 44 42 38 37 39 44 50 57 69 93 105 98 96 109 127 148 183 219 260 338 355 357 3 40 75 87 85 81 76 65 60 55 39 22 14 359 347 344 345 346 344 344 349 359 9 17 13 6 4 7 10 19 34 37 20 350 332 324 320 326 337 338 339 349
35 32 30 31 80 100 96 95 87 80 76 66 55 50 49 49 56 63 50 27 23 26 25 23 31 49 64 62 55 50 76 137 146 140 140 145 147 174 229 272 319 354 35 80 87 87 89 85 78 71 64 59 54 46 39 33 27 27 30 28 20 12 10 12 20 32 37 32 27 25 22 27 40 44 33 11 346 333 328 325 339 351 348 359 65
52 50 49 52 74 132 126 115 102 88 65 31 21 31 46 58 65 57 30 7 6 9 10 17 53 111 110 78 37 15 15 79 178 187 193 199 209 225 247 281 331 45 90 93 88 85 83 80 74 68 63 57 51 46 44 43 43 44 40 31 25 29 35 36 38 49 56 58 63 62 52 44 41 36 26 16 2 345 331 323 347 87 112 115 111
67 60 54 54 68 110 116 109 94 66 40 18 3 4 32 54 57 32 8 1 6 14 26 63 117 133 121 64 19 8 14 32 101 199 207 214 225 237 249 54 94 105 102 94 89 87 83 78 72 65 59 55 50 45 42 40 40 39 35 33 37 45 50 47 57 75 78 74 71 65 55 47 43 37 29 21 11 359 0 26 87 119 122 125 126
66 62 57 62 90 96 72 44 27 29 41 57 62 340 11 39 26 8 0 4 18 53 93 116 124 124 100 48 32 28 34 66 107 131 144 147 139 122 113 113 114 109 100 93 88 84 78 71 65 58 53 48 44 41 37 35 35 37 45 51 52 55 64 74 82 84 77 69 64 59 53 49 47 43 38 33 24 21 51 95 110 108 90 72 92
82 93 83 80 118 113 73 46 30 23 41 67 68 51 325 356 359 2 3 4 32 109 122 123 124 117 80 36 34 32 45 90 112 117 115 114 115 116 114 113 108 99 92 88 83 77 72 64 56 51 45 41 39 38 37 37 40 48 62 66 61 63 83 92 87 78 67 59 58 59 57 54 51 47 50 53 47 55 99 118 104 72 43 31 29
96 98 62 42 66 96 70 50 38 25 27 59 65 68 59 28 19 20 15 15 67 128 118 110 119 110 65 31 23 19 40 95 111 113 112 111 112 112 108 102 97 89 83 79 75 70 66 58 50 44 40 37 38 39 41 43 49 65 82 85 73 67 79 80 71 62 57 56 59 62 61 59 54 54 66 73 67 77 110 117 70 41 30 28 30
127 90 32 16 11 3 5 16 15 6 339 228 112 64 52 33 28 24 16 19 81 147 121 92 113 106 64 34 10 11 44 103 110 107 106 102 97 97 96 92 89 84 77 74 72 67 59 51 44 39 35 33 36 40 44 48 55 71 89 98 87 66 66 67 62 59 63 70 74 80 84 78 61 53 54 58 71 95 109 81 49 41 31 22 19
195 173 48 8 358 356 1 1 354 339 220 190 178 31 52 24 18 14 12 17 72 167 151 94 113 112 66 37 10 12 60 112 113 104 101 96 86 84 84 79 77 76 71 67 65 60 52 42 34 29 27 28 33 40 44 47 55 67 80 89 83 66 62 67 68 65 65 71 77 79 66 49 41 35 21 358 176 149 118 63 43 38 29 15 3
221 222 230 309 346 348 357 0 358 350 173 169 75 325 254 333 353 1 10 15 44 175 166 116 122 136 77 48 44 46 70 108 112 97 90 84 73 70 70 66 63 61 54 49 46 42 35 26 18 16 18 22 30 36 39 41 48 57 66 76 83 82 77 77 76 63 34 28 36 35 24 16 16 16 8 14 144 153 128 47 26 20 18 12 3
225 227 227 230 265 317 350 9 20 44 161 179 329 314 282 300 320 337 7 14 22 171 168 136 126 157 136 63 64 65 65 78 87 77 67 61 52 46 46 46 42 36 29 23 14 4 2 2 5 10 15 20 24 29 31 32 35 41 49 59 74 87 89 88 87 77 18 359 6 6 354 352 355 348 311 166 156 183 332 348 339 337 347 354 357
227 227 229 236 246 273 335 354 19 34 24 312 337 332 315 311 312 311 354 9 12 134 178 173 163 172 187 178 86 77 65 55 54 49 35 23 19 17 16 17 15 11 3 354 346 341 341 347 357 7 12 13 12 10 9 11 12 14 17 22 34 55 68 71 278 286 301 317 332 335 327 325 320 301 278 267 265 284 326 336 321 318 325 333 338
221 225 228 237 244 252 284 294 307 342 323 310 322 329 329 330 318 305 333 358 5 6 188 197 206 208 217 244 238 142 72 40 29 35 32 20 13 9 3 359 355 350 344 340 339 340 343 348 359 4 359 355 356 356 358 1 3 359 351 341 324 304 290 280 279 286 293 298 302 302 298 296 296 293 287 277 271 277 291 296 297 306 313 317 321
218 227 229 239 250 255 268 283 293 306 312 311 312 318 323 325 317 310 321 335 342 351 10 114 211 220 225 239 257 275 328 0 12 26 38 42 38 28 17 5 353 342 338 338 339 341 343 345 346 344 344 346 354 5 13 17 17 13 5 353 334 312 296 287 284 286 288 288 288 287 284 281 282 285 286 282 278 280 281 279 282 289 293 297 306
215 225 224 231 244 255 268 284 297 313 325 328 316 312 318 318 302 289 299 308 305 308 332 15 170 227 229 234 246 267 295 322 346 7 26 39 39 26 13 3 352 341 334 331 330 330 331 328 328 332 342 359 20 34 35 30 25 20 14 6 355 343 326 308 295 288 284 285 286 286 286 284 281 280 281 282 280 279 278 280 284 287 287 289 297
222 227 230 236 247 262 275 283 291 309 324 326 317 314 319 318 303 283 284 299 303 297 292 298 328 314 251 243 239 242 258 286 298 305 319 337 349 354 355 352 347 340 333 325 320 317 310 307 312 322 349 50 61 49 38 31 28 24 20 16 11 6 357 341 321 302 290 287 286 284 283 284 284 284 285 286 284 285 286 286 286 288 291 295 299
236 233 238 251 266 278 282 280 284 300 313 312 309 307 304 310 314 301 285 289 300 298 288 280 276 279 304 294 250 237 247 271 287 292 296 301 308 322 332 334 335 335 330 318 310 305 297 292 290 277 133 103 81 54 32 28 27 27 27 27 27 26 25 20 9 346 317 304 298 291 288 288 287 288 290 289 288 292 293 286 280 285 290 291 287